Location: Aalen
(48.8330°N, 10.1000°E)
Time: 11:49:55
(UTC+02:00)

S-56A Canister/Altair - Pass Details

Date: 09 August 2021
Orbit: 632 x 2500 km, 38.9° (Epoch: 21 September)

Event Time Altitude Azimuth Distance (km) Brightness Sun altitude
Rises 14:46:56 0° 242° (WSW) 4,819 12.1 52.9°
Reaches altitude 10° 14:49:51 10° 237° (WSW) 4,061 12.0 52.6°
Maximum altitude 15:00:44 52° 166° (SSE) 2,619 11.4 51.5°
Drops below altitude 10° 15:14:47 10° 97° (E) 5,155 11.6 50.0°
Sets 15:19:00 0° 93° (E) 6,177 11.9 49.5°
